CDT,Max TemperatureF,Mean TemperatureF,Min TemperatureF,Max Dew PointF,MeanDew PointF,Min DewpointF,Max Humidity, Mean Humidity, Min Humidity, Max Sea Level PressureIn, Mean Sea Level PressureIn, Min Sea Level PressureIn, Max VisibilityMiles, Mean VisibilityMiles, Min VisibilityMiles, Max Wind SpeedMPH, Mean Wind SpeedMPH, Max Gust SpeedMPH,PrecipitationIn, CloudCover, Events, WindDirDegrees
2013-8-1,79,64,50,53,50,47,93,65,36,30.03,29.97,29.88,10,10,10,13,6,21,0.00,1,,288
2013-8-2,75,60,46,54,48,43,97,67,36,30.10,29.99,29.91,10,10,10,14,4,20,0.00,1,,332
2013-8-3,73,59,46,51,46,43,97,65,35,30.27,30.19,30.11,10,10,10,14,5,20,0.00,1,,341
2013-8-4,73,56,41,53,47,39,93,65,41,30.28,30.17,29.96,10,10,8,12,3,,0.00,1,,159
2013-8-5,71,62,53,61,57,52,96,81,65,29.96,29.87,29.84,10,10,10,14,7,,0.00,6,,250
2013-8-6,73,60,46,62,54,46,100,87,57,29.86,29.80,29.75,10,8,0,14,4,18,0.04,4,Fog-Rain,320
2013-8-7,73,59,46,54,47,43,100,73,38,30.02,29.98,29.87,10,8,1,10,5,,0.00,1,,331
2013-8-8,75,64,55,54,51,45,93,68,37,30.06,30.03,30.00,10,10,10,13,4,17,0.00,4,Rain,299
2013-8-9,70,57,45,54,49,44,100,74,47,30.15,30.08,30.03,10,10,4,18,7,23,0.01,4,Rain,293
2013-8-10,75,64,54,54,51,47,97,68,38,30.21,30.16,30.09,10,10,10,7,2,,0.00,4,,252
2013-8-11,79,66,54,55,52,49,97,68,39,30.10,30.07,30.04,10,10,10,12,4,21,0.00,3,,321
2013-8-12,78,62,48,55,48,43,97,65,34,30.15,30.08,30.06,10,10,10,18,6,23,0.00,0,,329
2013-8-13,75,58,42,49,43,40,92,60,33,30.23,30.20,30.16,10,10,10,9,3,,0.00,1,,346
2013-8-14,77,58,41,49,44,38,93,60,29,30.22,30.17,30.10,10,10,10,10,2,,0.00,1,,256
2013-8-15,79,62,46,57,48,43,93,62,32,30.13,30.10,30.08,10,10,10,8,1,,0.00,2,,329
2013-8-16,81,68,55,57,53,48,97,64,35,30.16,30.13,30.11,10,10,8,13,4,20,0.00,2,,215
2013-8-17,82,68,54,60,57,52,94,70,45,30.14,30.09,30.03,10,10,7,18,9,26,0.00,2,,189
2013-8-18,84,70,59,63,60,57,93,71,50,30.05,29.98,29.92,10,10,7,23,11,29,0.00,3,,184
2013-8-19,88,76,64,68,65,61,96,71,49,29.93,29.88,29.84,10,10,5,10,6,,0.00,2,Rain,204
2013-8-20,95,80,66,70,68,66,100,92,52,29.86,29.83,29.76,10,5,0,15,7,23,0.00,2,Fog,175
2013-8-21,84,73,63,53,51,48,67,43,29,30.08,29.91,29.77,10,7,0,14,7,16,0.00,1,Fog,341
2013-8-22,80,66,53,52,47,37,90,52,26,30.19,30.15,30.09,10,10,10,8,5,,0.00,0,Rain,358
2013-8-23,84,66,48,64,53,47,97,61,33,30.16,30.08,29.98,10,10,10,14,5,22,0.00,0,,151
2013-8-24,91,80,69,73,67,65,93,71,42,29.99,29.89,29.80,10,9,6,23,13,33,0.00,1,,169
2013-8-25,93,84,75,74,72,70,89,71,47,29.94,29.89,29.83,10,10,10,13,9,,0.00,1,,207
2013-8-26,91,80,68,77,70,66,100,80,52,29.97,29.90,29.85,10,8,1,14,3,28,0.31,3,Rain,79
2013-8-27,91,78,66,70,67,62,100,76,39,29.95,29.88,29.82,10,8,0,8,4,,0.00,1,Fog,52
2013-8-28,87,77,68,70,67,62,93,76,46,30.03,29.99,29.95,10,10,10,12,2,,0.00,0,,142
2013-8-29,91,80,70,73,69,64,100,81,43,30.02,29.92,29.81,10,9,2,20,8,22,0.09,4,Rain,144
2013-8-30,82,72,64,70,63,60,90,76,49,30.01,29.95,29.88,10,10,10,14,8,20,0.00,3,,53
2013-8-31,91,78,62,69,62,57,94,73,32,29.91,29.80,29.72,10,9,2,16,8,30,0.25,2,Rain,217